Big Rapids, MI

10:21 AM EDT on April 30, 2017 (GMT -0400)
Roben-Hood

Weather History for KRQB - October, 2011

Change the Weather History Date:

Thursday, October 6, 2011

  Actual Average Record
Temperature  
Mean Temperature 59 °F -  
Max Temperature 77 °F 60 °F 84 °F (2007)
Min Temperature 41 °F 39 °F 24 °F (2003)
Degree Days  
Heating Degree Days 6    
Growing Degree Days 9 (Base 50)    
Moisture  
Dew Point 47 °F    
Average Humidity 74    
Maximum Humidity 100    
Minimum Humidity 32    
Precipitation  
Precipitation 0.00 in - - ()
Sea Level Pressure  
Sea Level Pressure 30.28 in    
Wind  
Wind Speed 2 mph (South)    
Max Wind Speed 7 mph    
Max Gust Speed -    
Visibility 10 miles    
Events      
Averages and records for this station are not official NWS values.
T = Trace of Precipitation, MM = Missing Value Source: NWS Daily Summary

Daily Weather History Graph

Daily Weather History Graph

Search for Another Location

Airport or City:

Trip Planner

Search our weather history database for the weather conditions in past years. The results will help you decide how hot, cold, wet, or windy it might be!

Date:

Astronomy

Oct. 06, 2011 Rise Set
Actual Time 7:45 AM EDT 7:14 PM EDT
Civil Twilight 7:16 AM EDT 7:43 PM EDT
Nautical Twilight 6:43 AM EDT 8:16 PM EDT
Astronomical Twilight 6:09 AM EDT 8:49 PM EDT
Moon 4:35 PM EDT (10/6) 2:23 AM EDT (10/6)
Length of Visible Light 12h 26m
Length of Day
11h 29m
Waxing Gibbous, 75% of the Moon is Illuminated
Oct 6
Waxing Gibbous
Oct 11
Full
Oct 19
Last Quarter
Oct 26
New
Nov 2
First Quarter

Hourly Weather History & Observations

Time (EDT) Temp. Dew Point Humidity Pressure Visibility Wind Dir Wind Speed Gust Speed Precip Events Conditions
12:13 AM 51.8 °F 48.2 °F 88% 30.28 in 10.0 mi South 4.6 mph - N/A   Clear
12:34 AM 51.8 °F 48.2 °F 88% 30.28 in 10.0 mi Calm Calm - N/A   Clear
12:53 AM 50.0 °F 48.2 °F 94% 30.27 in 10.0 mi Calm Calm - N/A   Clear
1:13 AM 48.2 °F 46.4 °F 93% 30.27 in 10.0 mi NW 4.6 mph - N/A   Clear
1:34 AM 48.2 °F 46.4 °F 93% 30.27 in 10.0 mi NW 3.5 mph - N/A   Clear
2:13 AM 44.6 °F 44.6 °F 100% 30.28 in 10.0 mi Calm Calm - N/A   Clear
2:34 AM 44.6 °F 44.6 °F 100% 30.28 in 10.0 mi Calm Calm - N/A   Clear
2:53 AM 44.6 °F 42.8 °F 93% 30.28 in 10.0 mi Calm Calm - N/A   Clear
3:13 AM 44.6 °F 42.8 °F 93% 30.28 in - Calm Calm - N/A   Unknown
3:34 AM 44.6 °F 44.6 °F 100% 30.28 in 10.0 mi Calm Calm - N/A   Clear
3:53 AM 42.8 °F 42.8 °F 100% 30.28 in 1.5 mi Calm Calm - N/A   Mostly Cloudy
4:13 AM 42.8 °F 42.8 °F 100% 30.28 in 7.0 mi Calm Calm - N/A   Scattered Clouds
4:34 AM 42.8 °F 42.8 °F 100% 30.28 in 10.0 mi Calm Calm - N/A   Clear
4:53 AM 42.8 °F 42.8 °F 100% 30.28 in 10.0 mi Calm Calm - N/A   Clear
5:14 AM 42.8 °F 42.8 °F 100% 30.29 in 10.0 mi Calm Calm - N/A   Clear
5:34 AM 41.0 °F 41.0 °F 100% 30.29 in 10.0 mi Calm Calm - N/A   Clear
5:53 AM 42.8 °F 42.8 °F 100% 30.29 in 10.0 mi Calm Calm - N/A   Clear
6:13 AM 42.8 °F 41.0 °F 93% 30.29 in 10.0 mi Calm Calm - N/A   Clear
6:34 AM 42.8 °F 41.0 °F 93% 30.30 in 10.0 mi Calm Calm - N/A   Clear
6:53 AM 41.0 °F 41.0 °F 100% 30.30 in 10.0 mi Calm Calm - N/A   Clear
7:14 AM 41.0 °F 41.0 °F 100% 30.30 in 10.0 mi Calm Calm - N/A   Clear
7:33 AM 41.0 °F 41.0 °F 100% 30.30 in 10.0 mi Calm Calm - N/A   Clear
7:53 AM 41.0 °F 41.0 °F 100% 30.31 in 10.0 mi Calm Calm - N/A   Clear
8:14 AM 41.0 °F 41.0 °F 100% 30.31 in 10.0 mi Calm Calm - N/A   Clear
8:34 AM 42.8 °F 42.8 °F 100% 30.31 in 10.0 mi Calm Calm - N/A   Clear
8:53 AM 42.8 °F 42.8 °F 100% 30.31 in 10.0 mi Calm Calm - N/A   Clear
9:14 AM 44.6 °F 44.6 °F 100% 30.32 in 10.0 mi Calm Calm - N/A   Clear
9:53 AM 50.0 °F 46.4 °F 87% 30.32 in 10.0 mi Calm Calm - N/A   Clear
10:14 AM 51.8 °F 50.0 °F 94% 30.33 in 10.0 mi Calm Calm - N/A   Clear
10:33 AM 55.4 °F 50.0 °F 82% 30.32 in 10.0 mi South 3.5 mph - N/A   Clear
10:53 AM 57.2 °F 50.0 °F 77% 30.32 in 10.0 mi SSE 4.6 mph - N/A   Clear
11:33 AM 60.8 °F 50.0 °F 68% 30.31 in 10.0 mi ESE 5.8 mph - N/A   Clear
11:53 AM 62.6 °F 50.0 °F 63% 30.31 in 10.0 mi Calm Calm - N/A   Clear
12:14 PM 64.4 °F 50.0 °F 59% 30.30 in 10.0 mi Calm Calm - N/A   Clear
12:33 PM 66.2 °F 50.0 °F 56% 30.30 in 10.0 mi Calm Calm - N/A   Clear
12:53 PM 68.0 °F 50.0 °F 52% 30.29 in 10.0 mi Calm Calm - N/A   Clear
1:14 PM 69.8 °F 50.0 °F 49% 30.29 in 10.0 mi Calm Calm - N/A   Clear
1:33 PM 71.6 °F 50.0 °F 46% 30.29 in 10.0 mi Calm Calm - N/A   Clear
1:53 PM 71.6 °F 50.0 °F 46% 30.28 in 10.0 mi Calm Calm - N/A   Clear
2:14 PM 73.4 °F 50.0 °F 44% 30.28 in 10.0 mi Calm Calm - N/A   Clear
2:33 PM 73.4 °F 50.0 °F 44% 30.27 in 10.0 mi SSE 5.8 mph - N/A   Clear
2:53 PM 75.2 °F 50.0 °F 41% 30.26 in 10.0 mi ESE 4.6 mph - N/A   Clear
3:14 PM 77.0 °F 50.0 °F 39% 30.26 in 10.0 mi SSE 5.8 mph - N/A   Clear
3:33 PM 77.0 °F 50.0 °F 39% 30.26 in 10.0 mi South 5.8 mph - N/A   Clear
3:53 PM 77.0 °F 46.4 °F 34% 30.26 in 10.0 mi SSW 3.5 mph - N/A   Clear
4:14 PM 77.0 °F 46.4 °F 34% 30.25 in 10.0 mi South 6.9 mph - N/A   Clear
4:33 PM 77.0 °F 46.4 °F 34% 30.25 in 10.0 mi South 5.8 mph - N/A   Clear
4:53 PM 77.0 °F 46.4 °F 34% 30.25 in 10.0 mi SSW 3.5 mph - N/A   Clear
5:14 PM 77.0 °F 44.6 °F 32% 30.25 in 10.0 mi South 5.8 mph - N/A   Clear
5:33 PM 77.0 °F 46.4 °F 34% 30.25 in 10.0 mi South 4.6 mph - N/A   Clear
5:53 PM 77.0 °F 46.4 °F 34% 30.25 in 10.0 mi SW 4.6 mph - N/A   Clear
6:13 PM 75.2 °F 50.0 °F 41% 30.25 in 10.0 mi SW 3.5 mph - N/A   Clear
6:33 PM 71.6 °F 55.4 °F 57% 30.25 in 10.0 mi Calm Calm - N/A   Clear
6:53 PM 68.0 °F 55.4 °F 64% 30.25 in 10.0 mi Calm Calm - N/A   Clear
7:14 PM 62.6 °F 53.6 °F 72% 30.26 in 10.0 mi Calm Calm - N/A   Clear
7:33 PM 60.8 °F 53.6 °F 77% 30.26 in 10.0 mi Calm Calm - N/A   Clear
7:54 PM 59.0 °F 53.6 °F 82% 30.26 in 10.0 mi Calm Calm - N/A   Clear
8:13 PM 59.0 °F 55.4 °F 88% 30.27 in 10.0 mi Calm Calm - N/A   Clear
8:33 PM 55.4 °F 53.6 °F 94% 30.27 in 10.0 mi Calm Calm - N/A   Clear
8:54 PM 53.6 °F 53.6 °F 100% 30.27 in 10.0 mi Calm Calm - N/A   Clear
9:13 PM 55.4 °F 53.6 °F 94% 30.27 in 10.0 mi Calm Calm - N/A   Clear
9:33 PM 53.6 °F 51.8 °F 94% 30.27 in 7.0 mi Calm Calm - N/A   Clear
9:54 PM 53.6 °F 51.8 °F 94% 30.27 in 7.0 mi WNW 3.5 mph - N/A   Clear
10:13 PM 51.8 °F 51.8 °F 100% 30.28 in 7.0 mi Calm Calm - N/A   Scattered Clouds
10:33 PM 51.8 °F 50.0 °F 94% 30.28 in 7.0 mi Calm Calm - N/A   Scattered Clouds
10:54 PM 51.8 °F 51.8 °F 100% 30.28 in 10.0 mi WNW 8.1 mph - N/A   Clear
11:13 PM 51.8 °F 51.8 °F 100% 30.28 in 10.0 mi NW 5.8 mph - N/A   Clear
11:33 PM 51.8 °F 50.0 °F 94% 30.28 in 10.0 mi WNW 8.1 mph - N/A   Clear
11:54 PM 50.0 °F 50.0 °F 100% 30.28 in 7.0 mi WNW 6.9 mph - N/A   Clear